TimeAEST,TemperatureF,Dew PointF,Humidity,Sea Level PressureIn,VisibilityMPH,Wind Direction,Wind SpeedMPH,Gust SpeedMPH,PrecipitationIn,Events,Conditions,WindDirDegrees,DateUTC
12:00 AM,59,56,85,30.31,19,SSW,6.9,,,,Scattered Clouds,200,2013-05-10 14:00:00
12:00 AM,59.0,55.4,88,30.30,6.2,SSW,6.9,-,N/A,,Partly Cloudy,200,2013-05-10 14:00:00
12:30 AM,62.6,57.2,82,30.30,6.2,South,5.8,-,N/A,Rain,Light Rain Showers,170,2013-05-10 14:30:00
1:00 AM,62,58,81,30.30,,South,5.8,,,,,180,2013-05-10 15:00:00
1:00 AM,62.6,57.2,82,30.30,6.2,South,5.8,-,N/A,Rain,Light Rain Showers,180,2013-05-10 15:00:00
1:30 AM,59.0,57.2,94,30.27,-9999.0,SSW,6.9,-,N/A,,Clear,210,2013-05-10 15:30:00
2:00 AM,57.2,55.4,94,30.27,-9999.0,SSW,8.1,-,N/A,,Clear,210,2013-05-10 16:00:00
2:30 AM,57.2,55.4,94,30.27,-9999.0,SSW,9.2,-,N/A,,Clear,210,2013-05-10 16:30:00
3:00 AM,57,55,92,30.27,19,SSW,9.2,,,,Partly Cloudy,210,2013-05-10 17:00:00
3:00 AM,57.2,55.4,94,30.27,-9999.0,SSW,9.2,-,N/A,,Clear,210,2013-05-10 17:00:00
3:30 AM,57.2,55.4,94,30.24,-9999.0,SSW,8.1,-,N/A,,Clear,210,2013-05-10 17:30:00
4:00 AM,56,55,95,30.27,,SSW,9.2,,,,,210,2013-05-10 18:00:00
4:00 AM,57.2,55.4,94,30.27,-9999.0,SSW,9.2,-,N/A,,Clear,210,2013-05-10 18:00:00
4:30 AM,57.2,55.4,94,30.24,-9999.0,SSW,9.2,-,N/A,,Clear,210,2013-05-10 18:30:00
5:00 AM,57.2,55.4,94,30.27,-9999.0,SSW,9.2,-,N/A,,Clear,210,2013-05-10 19:00:00
5:30 AM,55.4,53.6,94,30.27,6.2,SSW,9.2,-,N/A,,Partly Cloudy,210,2013-05-10 19:30:00
6:00 AM,56,55,95,30.28,16,SSW,10.4,,,,Partly Cloudy,210,2013-05-10 20:00:00
6:00 AM,57.2,55.4,94,30.27,6.2,SSW,10.4,-,N/A,,Partly Cloudy,210,2013-05-10 20:00:00
6:30 AM,57.2,55.4,94,30.27,6.2,SSW,9.2,-,N/A,,Partly Cloudy,210,2013-05-10 20:30:00
7:00 AM,58,56,89,30.29,,SW,10.4,,,,,220,2013-05-10 21:00:00
7:00 AM,57.2,55.4,94,30.27,6.2,SW,10.4,-,N/A,,Partly Cloudy,220,2013-05-10 21:00:00
7:30 AM,59.0,57.2,94,30.30,6.2,SSW,10.4,-,N/A,,Scattered Clouds,210,2013-05-10 21:30:00
8:00 AM,60.8,57.2,88,30.30,5.0,SSW,9.2,-,N/A,Rain,Light Rain Showers,200,2013-05-10 22:00:00
8:30 AM,62.6,57.2,82,30.30,6.2,SSW,11.5,-,N/A,,Mostly Cloudy,210,2013-05-10 22:30:00
9:00 AM,65,58,71,30.32,12,SSW,12.7,,,,Mostly Cloudy,210,2013-05-10 23:00:00
9:00 AM,64.4,57.2,77,30.30,5.6,SSW,12.7,-,N/A,,Mostly Cloudy,210,2013-05-10 23:00:00
9:30 AM,64.4,59.0,83,30.30,5.0,SSW,11.5,-,N/A,,Mostly Cloudy,210,2013-05-10 23:30:00
10:00 AM,66,58,68,30.32,,South,8.1,,,,,180,2013-05-11 00:00:00
10:00 AM,66.2,57.2,73,30.30,5.0,South,8.1,-,N/A,,Mostly Cloudy,180,2013-05-11 00:00:00
10:30 AM,66.2,59.0,78,30.30,4.3,South,8.1,-,N/A,Rain,Light Rain Showers,180,2013-05-11 00:30:00
10:42 AM,66.2,59.0,78,30.30,4.3,South,8.1,-,N/A,Rain,Light Rain Showers,170,2013-05-11 00:42:00
10:48 AM,64.4,60.8,88,30.30,2.5,SSE,8.1,-,N/A,Rain,Rain Showers,160,2013-05-11 00:48:00
11:00 AM,64.4,60.8,88,30.30,4.3,South,9.2,-,N/A,Rain,Light Rain Showers,190,2013-05-11 01:00:00
11:23 AM,66.2,62.6,88,30.27,5.0,SSW,9.2,-,N/A,,Scattered Clouds,200,2013-05-11 01:23:00
11:30 AM,66.2,62.6,88,30.27,5.6,SSW,9.2,-,N/A,,Mostly Cloudy,200,2013-05-11 01:30:00
12:00 PM,69,63,75,30.27,12,SSW,9.2,,,Rain,Light Rain Showers,200,2013-05-11 02:00:00
12:00 PM,69.8,62.6,78,30.27,6.2,SSW,9.2,-,N/A,,Mostly Cloudy,200,2013-05-11 02:00:00
12:30 PM,68.0,62.6,83,30.24,5.0,SE,12.7,-,N/A,Rain,Light Rain Showers,140,2013-05-11 02:30:00
1:00 PM,67,64,86,30.25,,SE,10.4,,,,,140,2013-05-11 03:00:00
1:00 PM,68.0,64.4,88,30.24,4.3,SE,10.4,-,N/A,Rain,Light Rain Showers,140,2013-05-11 03:00:00
1:30 PM,68.0,62.6,83,30.24,5.6,SSE,10.4,-,N/A,,Mostly Cloudy,150,2013-05-11 03:30:00
2:00 PM,68.0,62.6,83,30.24,4.3,SSE,11.5,-,N/A,Rain,Light Rain Showers,150,2013-05-11 04:00:00
2:30 PM,66.2,62.6,88,30.24,4.3,SE,11.5,23.0,N/A,Rain,Light Rain Showers,140,2013-05-11 04:30:00
3:00 PM,64,61,88,30.24,4,SSE,8.1,,,Rain,Light Rain Showers,160,2013-05-11 05:00:00
3:00 PM,64.4,60.8,88,30.24,4.3,SSE,8.1,-,N/A,Rain,Light Rain Showers,160,2013-05-11 05:00:00
3:20 PM,64.4,60.8,88,30.21,4.3,SSE,5.8,-,N/A,Rain,Light Rain Showers,150,2013-05-11 05:20:00
3:30 PM,66.2,60.8,83,30.21,5.0,SE,4.6,-,N/A,,Mostly Cloudy,140,2013-05-11 05:30:00
4:00 PM,65,62,86,30.24,,South,8.1,,,,,180,2013-05-11 06:00:00
4:00 PM,66.2,62.6,88,30.21,6.2,South,8.1,-,N/A,,Mostly Cloudy,180,2013-05-11 06:00:00
4:30 PM,66.2,62.6,88,30.24,6.2,SSW,8.1,-,N/A,,Mostly Cloudy,200,2013-05-11 06:30:00
5:00 PM,66.2,62.6,88,30.24,6.2,SSW,6.9,-,N/A,,Mostly Cloudy,200,2013-05-11 07:00:00
5:30 PM,66.2,60.8,83,30.24,6.2,South,5.8,-,N/A,,Mostly Cloudy,190,2013-05-11 07:30:00
6:00 PM,65,61,83,30.25,9,South,5.8,,,,Overcast,190,2013-05-11 08:00:00
6:00 PM,66.2,60.8,83,30.24,6.2,South,5.8,-,N/A,,Mostly Cloudy,190,2013-05-11 08:00:00
6:30 PM,64.4,60.8,88,30.24,6.2,South,8.1,-,N/A,,Mostly Cloudy,190,2013-05-11 08:30:00
7:00 PM,65,61,81,30.27,,South,8.1,,,,,190,2013-05-11 09:00:00
7:00 PM,64.4,60.8,88,30.27,6.2,South,8.1,-,N/A,,Mostly Cloudy,190,2013-05-11 09:00:00
7:30 PM,64.4,60.8,88,30.27,-9999.0,South,8.1,-,N/A,,Clear,180,2013-05-11 09:30:00
8:00 PM,64.4,59.0,83,30.27,-9999.0,South,9.2,-,N/A,,Clear,180,2013-05-11 10:00:00
8:30 PM,64.4,59.0,83,30.27,-9999.0,South,8.1,-,N/A,,Clear,170,2013-05-11 10:30:00
9:00 PM,64,57,73,30.29,19,South,6.9,,,,Partly Cloudy,190,2013-05-11 11:00:00
9:00 PM,64.4,57.2,77,30.27,6.2,South,6.9,-,N/A,,Partly Cloudy,190,2013-05-11 11:00:00
9:30 PM,64.4,57.2,77,30.27,6.2,South,6.9,-,N/A,,Partly Cloudy,190,2013-05-11 11:30:00
10:00 PM,63,56,73,30.30,,South,6.9,,,,,190,2013-05-11 12:00:00
10:00 PM,62.6,57.2,82,30.27,6.2,South,6.9,-,N/A,,Partly Cloudy,190,2013-05-11 12:00:00
10:30 PM,59.0,55.4,88,30.27,6.2,SSW,6.9,-,N/A,,Scattered Clouds,200,2013-05-11 12:30:00
11:00 PM,59.0,55.4,88,30.27,6.2,SSW,8.1,-,N/A,,Partly Cloudy,200,2013-05-11 13:00:00
11:30 PM,60.8,57.2,88,30.27,-9999.0,SSW,5.8,-,N/A,,Clear,200,2013-05-11 13:30:00